Wind_Speed
26 28 28 28 29 30 31 29 27 25 24 22 20 19 20 21 21 22 21 22 22 21 20 20 19 19 18 18 18 17 17 18 18 19 20 21 21 22 23 23 23 24 24 24 24 24 24 24 24 24 24 24 24 24 24 24 24 24 24 24 24 24 24 24 24 24 24 24 24 24 24 24 24 24 24 24 24 24 25 27 27 26 25 25 25 25
27 27 27 27 28 29 30 28 26 25 25 25 24 23 24 24 24 24 23 22 22 22 22 21 20 19 18 18 17 17 17 17 18 18 19 19 20 21 21 22 22 22 22 23 23 23 23 23 23 23 23 23 23 24 24 24 24 25 25 25 25 25 24 24 24 24 24 24 24 24 24 24 24 24 24 24 24 24 25 26 27 27 27 26 25 25
28 28 28 27 27 28 29 28 26 25 26 27 27 27 27 27 27 26 25 24 24 24 23 23 23 21 20 18 17 17 17 18 18 18 18 19 19 20 20 21 21 21 22 22 23 23 23 23 23 23 23 24 24 24 24 25 25 26 26 26 26 26 26 26 26 26 25 25 25 25 25 25 25 25 25 24 24 24 25 26 27 27 27 26 26 26
28 28 28 28 28 28 27 27 27 26 27 28 29 29 29 29 29 28 28 27 27 26 26 25 25 24 23 20 18 17 17 18 18 18 18 18 19 19 20 20 21 21 22 22 23 23 23 23 23 23 24 24 24 24 24 25 25 26 26 27 27 27 27 27 27 27 27 27 27 26 26 26 26 26 26 25 25 25 25 26 27 27 27 27 27 27
28 28 28 28 28 28 27 27 27 27 28 29 30 30 30 30 30 30 30 30 29 29 28 27 27 26 25 23 21 19 18 18 18 18 18 18 18 18 19 19 20 20 21 21 22 22 23 23 23 23 24 24 24 24 24 24 24 24 24 24 24 24 24 24 24 24 25 25 25 25 25 25 25 25 26 26 25 25 25 26 27 27 27 27 27 27
30 29 29 29 29 29 29 27 27 27 29 29 29 29 30 31 32 32 32 31 31 30 29 29 29 28 27 26 24 22 21 20 19 19 18 18 18 17 17 18 18 19 19 20 20 21 21 22 22 23 23 23 23 22 22 22 22 22 22 22 22 22 22 22 22 22 22 22 22 23 23 23 24 24 25 25 25 25 25 26 26 26 27 27 27 27
32 31 30 29 29 29 30 29 27 27 28 29 29 29 31 32 33 33 33 32 32 31 31 30 30 29 29 28 27 26 24 23 21 20 19 18 17 17 16 16 16 16 17 17 17 18 18 19 20 20 21 21 21 21 21 21 21 21 21 21 21 21 21 21 21 21 21 21 22 22 22 22 22 23 23 23 24 24 24 25 25 26 26 26 26 26
34 33 31 30 30 30 30 28 27 27 27 28 29 30 32 32 32 31 32 31 31 31 31 31 31 30 29 29 28 28 27 26 24 22 21 19 18 17 16 16 15 14 14 14 14 14 15 16 17 18 19 19 20 20 20 21 21 21 20 20 20 20 20 20 21 21 21 22 22 22 22 22 22 22 22 22 23 23 23 24 24 25 25 25 25 25
32 33 32 30 29 29 29 29 27 27 27 28 29 30 31 32 31 30 31 31 31 30 30 30 31 31 30 29 29 29 29 27 26 24 23 21 20 19 18 17 15 14 13 12 12 12 12 13 14 15 16 17 18 18 19 19 20 20 20 21 21 21 21 22 22 22 22 22 22 22 22 22 22 22 22 22 22 22 23 23 23 24 24 24 25 25
31 32 32 31 30 29 30 30 30 29 29 30 31 31 31 32 32 31 32 31 31 31 30 30 30 31 32 31 30 29 29 28 27 25 24 23 22 20 19 18 16 15 13 13 12 12 11 11 12 12 13 13 14 15 16 17 17 18 19 20 20 21 21 22 22 23 23 23 24 24 24 24 24 24 24 23 23 23 23 23 23 24 24 24 24 24
32 32 32 33 32 30 29 30 31 31 31 31 32 32 32 31 31 31 31 32 32 32 31 29 29 30 30 31 30 29 28 28 27 26 24 23 22 21 20 19 17 16 15 15 14 13 12 12 11 11 11 12 12 12 13 14 15 16 17 18 19 20 21 21 22 22 23 23 23 24 24 25 25 25 25 25 25 25 25 25 25 25 24 24 24 24
33 34 34 33 32 30 29 30 31 31 30 30 30 31 30 29 28 28 30 31 32 33 32 30 29 29 29 30 30 29 27 27 26 26 25 24 24 23 22 21 20 19 18 18 17 16 15 14 13 13 12 12 12 12 13 13 14 15 16 17 19 20 21 21 22 22 23 23 23 23 24 24 24 24 25 25 25 25 25 25 25 25 25 25 24 24
35 35 35 33 31 30 29 28 29 28 28 27 27 28 27 26 25 27 29 32 33 33 32 31 31 30 30 29 28 27 26 26 26 26 26 25 25 25 25 25 24 22 21 21 20 18 18 17 16 15 14 14 14 14 14 15 15 16 17 18 19 20 21 22 23 23 23 24 24 24 24 24 24 24 24 24 24 24 24 24 24 24 24 24 25 25
31 31 30 29 27 26 25 27 28 29 28 28 27 26 24 24 25 27 30 32 33 33 32 31 30 30 30 28 25 24 23 24 25 26 26 26 26 26 27 27 26 25 24 23 22 21 20 19 19 18 16 16 16 16 16 17 17 17 18 19 20 21 22 23 23 24 24 25 25 25 26 26 26 25 25 25 25 24 24 24 24 24 24 24 24 24
25 24 23 22 23 24 26 28 31 32 32 29 26 23 22 24 26 28 29 30 30 30 29 28 28 29 28 26 23 22 21 22 23 25 26 27 26 26 27 28 28 27 26 25 24 22 21 21 21 19 18 18 17 18 18 18 18 18 18 19 20 21 22 23 24 24 25 26 26 27 27 27 27 27 27 27 26 26 25 25 25 24 24 24 24 24
28 28 29 30 30 30 30 32 34 35 32 26 22 21 24 27 28 27 27 27 27 27 27 27 27 27 27 24 22 19 19 19 21 24 26 28 28 27 27 28 28 28 27 26 25 24 23 22 21 20 19 19 18 18 18 18 19 19 19 19 20 20 21 22 23 24 25 26 26 27 27 28 28 28 28 27 27 27 26 26 26 25 25 25 25 25
31 30 30 31 32 33 32 34 34 30 25 23 23 26 28 29 28 26 25 25 27 28 28 28 26 24 23 22 20 19 18 19 21 24 27 29 29 28 28 28 28 29 28 27 26 25 24 23 22 21 20 19 19 18 18 18 18 18 18 18 19 19 20 21 22 23 24 25 26 27 27 28 27 26 25 25 25 24 25 25 25 25 25 25 24 24
30 31 31 32 34 35 34 34 31 27 23 24 27 28 28 28 27 25 25 25 27 29 30 30 28 25 22 20 18 18 20 22 23 25 27 29 30 30 29 29 29 29 28 27 26 25 25 24 23 23 22 21 20 19 18 17 17 17 17 17 17 18 18 19 20 22 23 24 25 26 26 27 26 25 23 22 22 22 23 23 24 24 24 23 23 23
32 31 33 34 35 36 35 33 29 25 24 25 26 27 28 28 26 25 25 25 26 28 30 29 27 25 22 18 18 20 22 24 25 26 27 28 30 31 30 30 30 30 29 28 27 26 26 26 25 25 24 23 22 20 18 17 16 15 15 15 15 16 17 18 19 21 22 24 25 26 26 26 25 24 23 22 22 22 23 23 23 23 23 23 23 23
32 31 31 33 34 33 31 29 27 25 25 24 24 25 27 28 28 28 28 28 29 29 30 28 25 21 17 17 20 22 23 25 26 27 28 29 31 32 31 30 29 29 30 30 29 28 28 28 28 28 27 25 24 21 19 16 15 14 14 14 14 14 15 16 18 20 22 23 25 26 26 26 25 23 22 22 21 22 22 23 23 23 23 23 23 23
33 33 32 31 31 32 32 32 29 25 24 24 25 26 28 29 31 31 32 32 32 31 28 23 19 16 16 20 23 25 25 26 26 26 28 30 31 32 31 29 28 28 29 31 31 30 29 30 30 30 28 27 25 23 20 17 14 13 13 13 13 14 14 16 17 19 21 23 25 25 26 26 24 23 22 21 21 21 22 22 22 22 23 23 23 23
34 33 31 30 30 31 31 29 26 24 24 24 26 27 29 30 32 33 33 32 28 24 20 16 16 18 22 25 27 28 27 28 27 26 27 28 29 30 30 28 26 26 27 29 31 31 30 30 30 30 29 28 26 24 21 18 15 14 13 13 13 13 14 15 17 18 20 22 24 25 25 25 23 22 21 21 21 21 21 21 21 22 22 22 23 23
33 32 30 28 28 28 29 29 27 26 25 26 27 28 28 29 30 30 29 25 21 19 19 21 24 27 29 29 29 29 30 29 28 26 25 25 26 28 28 26 25 25 27 29 30 30 30 30 31 31 30 28 26 24 22 20 17 15 14 14 13 14 14 15 16 18 20 21 23 24 24 24 23 21 21 20 20 20 20 21 21 21 22 22 22 23
29 29 28 28 28 29 30 30 28 27 26 27 27 26 25 24 24 23 22 23 24 26 28 30 30 31 30 30 30 31 31 31 29 26 23 24 25 26 26 25 25 27 28 30 30 30 30 31 32 31 30 28 27 25 23 21 19 17 16 15 15 14 14 15 15 17 18 20 21 22 22 23 22 21 21 20 20 20 20 21 21 21 21 21 22 22
26 26 25 26 27 28 29 28 28 27 27 26 25 23 22 23 25 28 30 31 32 31 30 28 27 27 27 26 27 29 32 31 30 27 23 23 24 26 26 25 25 26 28 30 30 29 29 31 31 31 30 29 27 26 24 22 21 19 18 17 16 15 15 15 15 16 17 18 19 20 21 21 21 21 20 20 20 20 20 20 20 20 20 21 21 22
23 23 24 25 26 27 28 28 28 27 26 24 23 23 25 27 29 31 33 33 32 29 27 26 25 25 25 24 25 27 29 30 30 28 25 24 25 26 26 26 24 24 25 27 27 27 27 28 30 31 31 30 29 27 25 23 22 20 19 18 17 16 16 15 15 16 17 17 18 19 19 20 21 21 20 20 19 19 19 19 19 19 19 20 21 22
22 23 25 26 27 27 27 27 27 26 25 25 25 26 26 27 28 29 30 30 29 28 27 27 26 26 25 24 24 25 26 28 29 30 30 28 27 27 27 25 23 22 23 24 24 24 25 26 28 29 30 30 30 28 26 24 23 21 20 19 18 17 16 15 15 16 16 17 17 18 18 19 20 20 20 19 19 19 19 18 18 18 19 20 21 22
24 26 28 28 29 28 27 26 26 26 26 26 26 25 25 26 26 28 29 30 30 30 29 28 27 26 25 25 25 25 25 26 28 29 30 28 27 26 25 22 21 22 23 25 26 26 27 28 29 29 29 30 30 29 27 25 23 22 21 19 18 17 17 17 16 16 16 17 17 17 18 18 19 19 19 20 19 19 19 18 18 18 19 20 21 22
27 29 30 31 30 29 27 26 25 26 26 26 26 26 27 28 29 29 30 30 31 31 30 29 28 27 26 26 26 26 26 25 25 25 24 23 23 23 22 21 22 24 25 27 29 30 29 28 27 26 27 28 28 27 25 24 22 21 19 19 18 18 18 18 18 17 17 17 17 17 18 18 18 18 19 20 20 20 20 19 18 18 19 20 22 23
27 29 30 30 29 27 25 24 24 24 24 26 28 30 31 32 32 31 31 31 30 30 30 29 27 26 25 25 25 24 23 22 20 19 17 18 20 21 21 22 24 25 25 24 24 25 25 24 23 23 23 22 21 21 20 19 18 18 17 18 19 19 20 20 19 17 17 17 17 18 18 18 18 18 18 19 20 20 20 20 19 20 21 22 24 26
26 27 28 27 26 24 23 21 21 21 23 26 28 30 31 32 32 31 31 30 29 29 28 27 25 24 23 22 22 22 21 19 18 17 17 19 22 24 23 24 25 25 23 21 19 19 20 19 18 17 15 15 15 16 16 17 17 17 18 19 20 20 20 20 18 17 17 17 18 18 18 18 18 18 18 18 19 20 20 20 20 21 22 23 25 27
28 28 27 27 26 24 22 21 20 21 23 25 27 29 30 30 30 30 29 28 28 27 26 25 24 24 23 22 22 22 22 22 22 22 21 22 24 25 24 24 23 23 22 20 19 18 18 18 17 17 17 17 18 20 21 21 21 21 21 21 22 22 21 20 19 18 18 18 18 19 19 19 18 18 17 18 18 19 20 20 20 21 22 23 25 26
30 29 28 27 26 24 23 22 22 23 24 26 27 28 28 29 28 28 27 27 26 24 23 22 23 23 23 22 22 23 24 24 24 23 21 21 22 23 22 22 21 21 21 20 19 20 20 21 21 22 22 22 23 25 26 26 26 25 25 24 24 24 23 22 21 20 19 19 19 19 20 19 18 18 17 17 18 18 19 20 20 21 22 23 24 25
30 29 28 27 26 25 24 23 24 24 25 26 27 28 28 28 28 27 26 25 24 22 21 20 21 21 22 22 22 23 23 23 23 21 20 20 20 21 22 22 22 21 21 21 21 21 21 22 22 21 21 22 23 24 25 26 26 25 25 24 24 24 24 23 22 20 20 19 20 20 20 19 18 17 17 17 18 18 19 19 20 21 22 23 24 24
31 29 28 27 26 25 25 24 25 26 26 27 27 27 27 27 27 26 25 24 22 21 20 20 20 20 21 22 22 23 24 24 23 22 21 21 22 23 23 23 22 22 22 22 22 21 21 21 20 20 21 21 22 22 23 23 23 23 22 22 23 23 22 21 20 19 19 19 19 20 19 18 17 17 17 17 17 18 19 19 20 20 21 22 23 23
30 28 26 25 24 24 24 25 25 26 26 27 27 27 27 26 26 25 24 22 21 20 19 19 19 19 19 20 22 23 25 24 23 22 22 23 23 23 23 23 22 22 22 22 22 22 22 22 21 21 21 21 21 21 21 21 21 21 21 21 21 21 20 19 18 18 18 18 19 19 19 18 18 18 17 17 18 18 19 19 20 20 21 21 22 23
28 26 24 23 23 23 24 24 25 25 26 26 26 26 26 25 25 23 22 21 19 18 18 17 17 17 18 18 19 21 22 22 21 21 20 20 20 20 21 22 22 22 22 22 23 23 23 23 22 22 21 21 20 20 20 20 20 21 22 22 20 19 18 18 17 18 19 19 20 20 20 20 20 19 18 18 18 18 19 19 20 20 20 21 22 23
26 25 24 23 23 23 23 24 25 25 26 26 26 26 25 24 23 21 20 18 17 16 15 15 15 15 15 16 17 17 18 18 18 17 17 16 16 17 18 19 21 21 22 22 23 23 23 22 22 22 21 20 20 20 20 19 19 20 21 21 20 18 16 16 16 17 19 20 21 22 22 22 22 21 19 18 18 18 19 19 19 20 20 21 22 22
24 23 23 22 22 22 23 24 25 26 26 26 25 24 23 21 20 18 16 15 13 13 12 12 13 13 14 14 14 14 15 14 14 14 13 13 13 14 15 17 19 20 21 22 22 23 22 22 22 21 21 21 21 21 20 20 19 20 20 21 21 19 17 15 15 15 16 18 19 21 22 22 22 21 19 18 18 18 19 19 19 19 19 20 21 22
22 22 21 21 22 23 24 25 25 26 25 25 23 21 20 18 16 14 12 11 11 10 11 11 12 13 13 13 13 12 12 11 11 11 11 11 11 12 13 15 17 18 19 20 20 21 21 21 22 22 22 22 21 21 21 20 20 20 20 20 19 19 19 18 17 17 16 16 17 18 19 20 20 19 18 18 18 18 18 18 18 18 19 19 20 20
20 21 22 23 24 24 25 25 25 24 23 22 20 18 15 13 11 10 10 10 10 10 11 12 13 14 14 14 13 12 11 10 10 9 10 10 11 11 12 13 15 16 17 17 18 19 19 20 21 22 22 22 22 22 22 21 20 20 19 19 19 19 18 19 19 19 19 18 17 16 16 17 17 17 17 17 18 18 18 17 17 17 18 19 19 19
20 21 23 24 25 25 25 24 23 22 20 18 15 12 10 9 8 9 10 11 11 12 12 13 14 15 15 15 14 12 12 11 10 10 10 11 11 12 12 13 13 14 15 16 17 18 19 19 20 21 21 22 22 22 22 22 21 20 19 19 20 20 20 20 20 20 20 19 18 17 16 15 15 16 16 17 17 17 16 16 16 16 16 17 18 18
21 22 24 24 25 24 23 22 20 18 15 13 11 8 7 7 7 9 10 12 13 14 14 14 15 16 16 17 16 16 15 13 12 12 11 11 12 12 12 13 13 14 14 16 17 18 18 19 19 20 21 21 21 21 22 23 23 22 21 20 20 21 21 21 20 20 19 18 17 15 14 13 13 14 15 15 16 15 15 15 15 15 16 16 16 17
21 22 23 23 23 22 20 18 15 13 12 10 8 6 6 6 7 9 11 13 14 14 15 15 16 16 17 17 18 18 18 17 15 13 12 11 11 12 12 12 13 13 14 16 17 17 17 18 19 19 20 20 21 21 23 23 24 23 23 22 22 21 21 20 20 18 17 15 13 12 10 10 11 12 13 13 14 14 14 14 14 15 15 16 16 17
21 21 22 21 20 18 15 14 13 11 10 8 7 7 7 8 9 11 12 13 14 14 15 16 16 16 16 17 17 18 19 19 17 15 13 11 10 10 11 12 13 14 15 16 16 16 17 17 18 19 19 20 21 22 22 23 23 23 22 21 20 20 19 18 17 15 14 12 11 10 8 8 9 10 11 12 13 13 13 13 14 14 15 15 16 16
20 20 20 19 17 15 14 13 11 10 9 8 8 8 9 11 12 13 13 13 14 15 16 16 16 15 15 15 16 17 18 19 18 17 14 12 10 10 10 11 13 14 15 15 14 13 14 15 16 17 18 19 20 20 21 20 21 20 20 19 18 17 16 15 13 12 12 11 11 9 8 8 9 10 11 11 12 12 12 13 13 14 15 15 16 16
19 19 19 17 16 14 13 11 10 9 9 9 9 10 11 12 13 13 13 14 15 17 18 17 16 15 15 15 16 17 18 18 18 18 16 15 13 12 11 12 13 13 13 13 12 11 11 12 13 14 15 16 17 18 18 17 17 17 17 16 16 15 14 12 11 10 10 10 10 9 8 8 8 9 10 11 11 12 12 13 13 14 14 15 16 16
19 19 18 16 15 13 12 11 10 9 9 10 11 11 11 12 12 13 14 15 17 19 19 18 17 16 15 15 16 16 16 17 18 18 18 17 16 14 13 13 13 13 13 12 11 10 9 9 10 11 12 13 15 15 16 15 14 14 14 14 14 13 11 10 9 9 9 8 8 7 7 7 7 8 9 10 11 12 12 12 13 13 14 14 15 15
18 18 17 15 14 13 12 10 9 9 10 11 11 12 11 11 12 14 16 17 19 20 19 19 17 17 16 16 16 16 16 16 16 17 17 18 17 16 15 14 14 14 13 12 11 10 8 7 7 8 9 10 11 12 13 12 12 12 12 12 11 10 9 7 7 7 6 6 6 6 7 7 8 9 10 11 11 12 13 13 13 13 13 14 14 14
18 18 17 15 14 13 12 9 8 9 10 10 11 11 11 12 14 16 17 18 19 20 20 19 18 17 16 16 15 15 15 15 15 16 16 17 17 16 16 15 15 15 14 13 13 12 11 9 8 7 6 7 8 9 9 10 10 10 10 9 8 7 6 5 5 5 5 6 6 7 8 9 10 11 12 11 12 12 13 13 12 12 12 13 13 13
18 18 17 16 15 13 11 9 8 8 9 10 10 11 12 14 16 18 18 19 20 20 20 19 17 16 16 15 15 15 15 14 15 15 16 16 16 16 16 16 16 16 16 15 14 14 13 13 12 11 9 8 7 7 8 9 10 11 10 8 6 5 4 4 5 5 6 7 8 9 9 10 11 11 11 11 12 12 13 12 11 11 11 12 12 12
Wind_Direction
297 300 302 305 307 309 312 316 318 318 318 318 317 316 315 314 313 313 314 314 314 313 310 306 301 296 290 286 283 282 282 282 282 282 281 281 281 281 281 280 280 280 279 279 279 279 280 281 281 281 281 280 280 279 278 278 277 276 275 275 274 273 272 272 271 271 270 270 270 269 269 268 268 268 269 269 269 269 270 271 273 274 275 275 274 273
298 300 301 303 306 308 311 315 317 318 317 318 318 318 317 317 316 316 315 314 314 315 314 313 311 306 300 294 289 286 285 285 284 283 281 280 279 278 277 276 276 276 275 275 276 277 279 280 281 280 280 279 278 277 276 276 274 273 272 271 270 270 269 269 269 269 269 269 269 268 268 267 267 267 268 268 268 268 267 268 270 273 275 276 276 275
299 300 301 303 305 306 308 312 316 317 316 317 317 318 318 318 318 317 317 316 317 318 319 320 320 317 312 305 298 292 289 288 287 286 284 282 280 278 276 275 274 273 273 273 274 276 278 278 278 278 277 276 275 274 273 272 271 269 268 267 267 267 267 266 266 266 266 266 266 266 265 265 266 266 267 267 267 267 267 268 269 271 273 274 274 274
297 299 301 303 304 304 305 309 313 315 316 316 316 317 318 318 318 318 318 319 319 320 321 322 323 322 319 314 307 299 295 292 291 290 288 287 284 281 279 277 275 274 274 273 273 274 275 275 276 276 275 274 274 273 273 272 271 270 269 268 268 269 269 269 269 268 267 267 266 266 266 266 266 265 266 266 267 268 268 268 269 270 271 272 273 273
296 297 299 301 302 302 303 307 310 311 313 313 314 315 316 316 316 317 318 318 318 319 320 321 322 322 321 318 314 309 303 300 298 296 294 292 289 286 283 280 278 277 276 275 275 274 274 274 274 274 274 274 274 275 275 275 275 275 274 274 274 274 274 274 274 274 273 273 272 271 271 270 269 267 266 266 267 267 268 268 269 270 270 271 272 272
296 296 297 298 298 299 302 304 306 308 309 310 310 311 313 314 314 315 315 315 316 317 317 319 320 321 320 319 318 315 311 307 304 302 299 297 294 290 287 284 282 280 278 276 275 275 274 273 272 273 274 276 277 277 277 277 277 277 277 276 276 276 276 275 275 275 275 275 274 274 273 273 272 270 269 268 268 268 268 268 269 269 270 271 271 272
295 295 296 296 296 297 299 301 303 305 305 306 306 308 310 312 312 312 312 313 314 314 315 316 318 319 319 318 318 317 315 313 310 307 304 302 299 297 294 291 287 284 281 279 277 275 274 273 272 274 276 278 278 278 277 276 276 275 275 275 275 274 274 273 273 272 271 271 271 271 271 271 272 271 271 271 270 269 268 268 269 269 270 271 271 272
293 294 294 293 294 295 295 297 300 302 302 302 303 305 308 309 309 309 309 310 311 311 312 313 314 315 316 316 316 315 315 314 313 311 310 309 308 307 305 303 299 294 290 287 284 281 279 277 276 277 278 278 277 276 274 273 272 271 271 271 271 271 270 270 269 268 268 268 267 268 268 269 269 270 270 270 270 270 270 270 270 270 270 270 270 270
289 290 291 290 290 291 292 294 297 299 301 299 300 302 303 306 306 306 308 308 308 308 308 309 310 311 313 314 313 313 314 314 313 313 314 314 315 315 315 313 311 307 304 300 296 292 289 286 285 283 282 281 279 278 276 274 273 273 272 271 270 270 270 269 268 268 268 268 268 267 268 268 268 269 269 270 270 270 270 270 270 270 270 270 270 270
286 287 288 288 288 287 288 291 296 300 302 300 300 302 303 304 305 306 307 307 308 309 307 306 307 309 311 312 312 312 312 313 314 315 316 317 318 319 320 319 317 314 311 308 304 300 296 294 293 292 290 288 288 287 285 284 283 282 280 279 278 277 276 275 274 273 272 272 271 270 270 269 269 269 270 270 270 270 270 270 269 269 269 270 270 269
287 287 286 286 286 286 287 290 296 300 301 300 301 303 304 305 305 305 305 305 307 309 307 304 303 305 307 308 310 310 310 311 313 315 317 319 321 322 323 322 321 318 314 310 307 303 300 297 294 292 290 290 291 291 291 291 290 289 287 286 284 283 281 280 279 278 277 276 274 273 272 271 271 270 270 270 270 270 270 269 269 269 269 269 269 269
285 285 284 283 284 285 287 291 295 297 297 297 297 298 299 302 304 304 302 302 303 304 304 302 301 301 301 303 306 308 310 311 313 316 318 319 321 322 323 323 321 318 315 311 308 305 302 299 294 289 286 284 283 284 284 285 286 286 286 285 284 283 281 280 279 279 278 277 276 275 275 274 273 272 272 271 271 271 271 271 270 270 269 269 268 268
282 282 282 282 282 284 287 291 293 293 292 291 290 290 292 297 300 301 300 300 300 300 300 300 299 299 300 302 304 307 310 313 315 317 318 318 319 319 320 319 318 317 314 312 308 306 305 303 298 292 286 281 278 277 277 277 279 280 280 280 280 279 279 279 278 278 278 277 277 276 276 275 274 274 273 273 273 273 273 273 272 272 271 270 269 269
283 283 282 281 282 285 289 292 292 292 289 287 285 285 288 294 298 300 300 300 300 299 298 295 295 297 300 302 305 308 311 314 316 317 317 316 316 316 316 315 315 314 313 312 309 308 307 307 303 297 290 284 279 276 274 274 274 275 276 277 277 276 276 276 276 276 277 277 276 276 275 275 274 274 273 273 273 273 273 273 274 274 273 273 272 271
291 291 290 289 289 290 291 291 292 292 289 287 285 286 291 296 299 301 301 300 299 297 295 292 291 294 297 301 306 310 312 314 314 314 313 312 312 312 312 312 312 312 312 311 310 308 308 308 306 301 295 289 284 279 276 273 272 272 273 273 274 274 274 274 274 275 275 275 275 275 274 274 273 273 273 273 273 273 273 273 274 274 274 274 274 273
292 293 293 292 292 292 292 293 292 291 288 285 286 291 297 300 302 303 302 299 297 295 291 290 290 292 295 300 306 310 311 311 310 309 308 308 308 309 310 309 309 310 311 311 311 310 310 309 307 304 300 295 290 284 279 274 270 268 268 269 270 271 271 272 273 274 275 275 275 274 273 273 272 272 272 272 272 272 273 273 274 274 275 274 275 275
288 289 289 290 291 292 292 293 292 288 284 286 293 298 301 303 304 305 304 301 298 294 291 290 289 288 290 295 301 305 306 305 304 304 305 305 307 308 309 308 308 308 310 311 310 311 311 311 310 308 305 302 298 293 286 278 271 267 265 264 265 266 268 271 274 276 278 278 277 276 274 273 272 271 270 270 270 270 271 273 274 275 275 276 276 276
287 287 287 287 288 289 290 290 288 285 285 292 299 302 302 302 303 303 303 301 298 294 292 290 286 281 280 283 289 296 300 301 303 304 304 305 306 307 308 308 308 308 309 310 310 310 310 310 311 310 310 308 306 302 294 285 275 268 263 261 261 262 266 270 275 279 282 283 282 280 277 275 272 270 269 268 268 269 270 271 273 274 274 274 274 274
287 285 284 284 285 286 287 285 283 284 289 296 301 303 302 301 301 300 299 298 295 294 292 287 282 277 275 278 285 292 299 303 305 306 305 304 305 306 307 307 307 307 308 308 309 309 309 309 310 311 311 311 310 306 300 291 280 271 264 260 259 260 264 270 277 282 285 286 285 283 281 277 273 270 268 267 267 268 269 270 271 271 271 272 271 271
289 287 285 286 286 286 285 283 285 289 293 297 299 299 299 299 299 298 297 297 295 294 292 285 278 274 276 284 291 296 302 306 308 307 306 305 304 304 305 306 306 305 305 306 306 306 306 307 308 309 310 310 310 308 303 295 284 273 266 262 260 261 265 271 277 282 285 286 286 285 282 278 275 271 269 268 267 267 268 268 269 269 270 270 270 270
292 291 289 289 289 288 288 288 289 292 294 296 296 296 297 298 298 297 296 295 293 290 285 278 275 280 290 296 300 302 305 308 308 307 306 305 304 303 303 304 304 303 302 303 304 304 304 304 305 306 307 308 308 307 304 297 286 275 267 263 262 264 267 273 278 283 286 287 286 285 282 279 275 272 269 268 268 268 268 268 268 268 269 270 270 271
292 292 292 293 294 294 294 292 292 292 295 296 297 297 298 297 296 293 292 290 288 285 282 282 288 295 300 301 303 305 307 308 307 305 304 302 301 300 301 302 301 300 298 299 300 301 301 301 301 303 304 304 305 304 302 296 288 278 270 266 265 266 270 275 280 284 286 287 286 285 282 279 275 271 269 268 267 267 267 268 268 269 269 270 270 271
292 292 293 296 298 299 296 293 292 294 297 298 299 299 299 297 295 292 289 288 288 290 294 297 300 302 303 302 303 304 306 307 306 303 301 297 295 295 298 299 298 296 294 295 297 297 297 297 298 299 300 301 301 301 299 295 288 280 273 269 267 268 272 277 282 285 287 287 286 285 283 279 275 271 269 268 267 267 267 268 268 269 269 270 270 271
291 292 293 297 299 299 297 295 296 297 299 299 299 298 298 298 298 297 297 297 299 301 303 303 304 303 302 302 302 303 304 305 304 302 297 292 290 291 294 295 294 293 292 293 294 294 294 295 295 296 297 297 298 298 296 293 288 282 276 271 269 269 271 277 282 285 287 287 287 286 283 280 276 272 270 268 267 267 267 268 268 268 269 270 270 271
291 293 294 297 298 297 297 297 297 297 296 296 295 294 294 294 294 295 296 299 302 305 306 306 304 301 299 298 298 300 303 303 303 300 294 289 289 289 290 291 291 290 290 292 293 293 294 294 294 294 294 294 295 295 294 292 288 283 278 274 270 269 271 275 281 285 287 287 287 286 284 281 277 273 270 268 267 267 267 267 267 267 268 269 270 271
292 295 297 297 296 295 294 293 292 290 289 288 286 286 285 286 288 291 294 298 302 305 306 304 301 298 298 297 296 297 300 301 300 297 292 289 288 288 289 290 290 289 290 292 293 294 293 293 293 293 292 292 292 293 293 292 289 285 280 276 272 270 271 276 281 285 286 287 287 286 284 280 277 273 270 268 267 267 267 267 266 267 268 269 270 270
294 296 297 298 297 295 293 290 288 284 280 276 275 276 278 282 287 292 295 298 300 302 302 301 300 299 299 297 296 297 298 298 296 294 292 290 288 288 289 290 290 290 289 289 289 288 288 288 289 289 290 290 291 292 293 292 291 287 283 279 275 273 273 276 281 285 287 286 285 283 281 278 276 273 271 269 267 267 266 266 266 268 269 270 270 269
299 300 300 301 301 299 296 291 285 280 274 271 271 275 282 288 293 296 297 296 297 298 298 298 297 297 297 296 295 295 295 293 293 293 294 293 289 287 288 289 288 285 283 283 282 281 282 284 286 287 288 288 289 291 292 292 291 289 287 283 280 277 276 278 282 285 286 285 282 280 277 275 274 273 271 270 269 268 268 267 267 268 269 269 268 268
306 307 307 307 304 300 293 286 280 276 275 277 283 290 295 299 299 299 297 296 296 296 296 295 294 294 294 294 294 294 293 292 293 295 297 294 288 285 287 286 284 282 282 284 286 287 286 286 287 288 289 290 291 292 292 292 292 290 288 286 283 280 279 280 283 285 285 282 279 276 274 273 272 272 272 272 272 271 270 269 268 268 268 267 268 269
310 310 309 306 299 291 282 275 273 275 280 287 293 297 299 299 299 298 296 296 296 295 295 293 292 291 291 293 293 293 291 291 293 294 293 287 283 283 286 286 286 286 289 293 295 295 292 290 289 290 291 292 292 291 291 290 289 288 286 285 284 282 282 283 284 285 283 280 277 274 272 271 271 271 272 272 272 272 272 271 270 269 268 269 270 273
307 306 303 296 288 280 274 274 277 283 287 290 292 293 294 294 294 294 294 295 295 295 294 292 290 288 288 289 289 288 288 287 287 286 283 282 282 284 286 288 289 291 293 295 293 291 291 291 291 289 287 284 280 278 279 280 281 281 281 282 282 282 283 285 285 285 282 279 276 273 272 271 271 271 271 272 272 272 272 272 271 270 270 271 273 275
305 302 297 291 285 283 285 290 294 295 293 290 289 289 290 291 292 292 293 294 295 295 293 291 289 287 285 283 281 281 282 283 284 284 284 284 285 286 288 289 290 291 292 291 286 283 286 289 289 286 282 279 275 273 273 275 277 279 280 281 281 281 282 284 285 285 283 280 276 273 271 271 272 273 272 272 271 272 272 272 272 271 271 272 274 277
304 302 298 295 293 294 298 302 302 299 295 292 290 291 291 292 293 294 295 296 296 296 294 290 288 286 285 283 280 279 281 283 285 287 288 288 288 289 290 290 290 291 291 289 284 280 281 284 286 287 287 285 283 281 279 279 280 281 282 283 282 282 282 283 284 284 283 280 275 271 270 270 272 273 273 272 271 271 271 272 272 272 273 274 276 279
303 301 299 298 298 300 302 302 301 298 295 294 293 294 294 295 296 297 298 299 299 297 294 289 286 285 285 284 283 282 283 285 287 289 288 286 286 287 288 289 289 289 289 287 285 284 283 283 285 287 289 290 289 288 287 286 285 285 284 284 283 283 283 284 284 283 280 277 272 268 267 268 271 273 274 273 271 270 270 271 272 273 274 275 276 278
300 300 299 299 300 300 300 300 298 297 296 297 297 298 299 300 301 302 302 302 301 298 295 290 286 283 282 282 283 283 283 285 287 288 286 284 284 285 286 286 286 287 287 287 286 286 286 285 284 285 288 290 291 291 291 291 290 288 287 285 283 283 283 284 283 280 277 272 268 265 264 267 271 274 274 272 270 268 268 269 271 272 273 274 275 276
300 300 300 300 300 300 299 299 299 299 300 301 302 303 304 305 305 305 305 304 302 299 295 291 288 285 282 281 281 282 284 288 291 292 291 289 288 287 285 285 285 285 285 285 284 284 285 285 285 286 286 288 289 290 291 292 292 292 290 288 286 284 283 281 278 275 271 267 264 263 264 268 272 275 275 272 268 266 266 267 269 270 271 271 273 274
300 301 301 300 300 299 300 300 302 304 306 307 308 308 308 308 308 306 305 304 301 298 295 292 290 287 285 284 283 285 289 294 297 298 296 294 292 289 285 284 283 283 281 280 281 282 282 283 284 285 285 285 286 288 290 292 293 293 293 294 293 289 283 278 274 270 267 264 263 264 266 269 273 275 274 270 267 264 264 265 266 267 268 269 270 273
299 299 300 300 300 301 302 304 307 309 310 311 311 311 310 309 307 306 304 302 300 298 296 294 292 290 288 288 288 290 294 297 299 300 298 296 292 289 286 285 283 281 279 277 277 278 279 280 282 283 283 283 283 284 287 289 290 292 294 299 301 298 292 284 277 272 268 266 265 265 266 268 270 272 271 268 264 262 262 262 264 265 266 268 270 272
298 299 300 301 302 304 306 308 310 311 311 311 311 310 309 307 306 303 301 300 299 298 298 297 296 295 295 294 295 296 298 300 302 302 300 298 294 291 288 286 284 282 280 278 276 275 275 276 277 278 280 282 283 284 285 287 288 290 294 299 303 305 304 299 293 286 279 274 270 267 266 266 266 267 266 263 260 258 257 258 260 262 264 267 270 273
300 301 302 303 304 305 307 309 310 310 311 310 309 308 307 305 303 300 299 299 300 302 303 302 301 301 301 301 302 303 305 306 307 307 306 304 301 297 293 290 289 288 286 284 281 279 276 275 274 274 276 278 280 282 284 285 286 289 293 295 297 299 302 303 302 297 292 286 280 274 270 266 264 261 259 257 255 254 253 254 257 260 263 266 270 273
302 303 303 303 304 306 307 308 309 309 309 309 308 307 305 302 300 299 302 305 308 310 310 309 308 307 307 307 309 311 315 317 317 317 315 313 312 309 304 301 299 298 296 293 290 287 283 278 275 274 274 275 277 279 281 282 284 286 288 290 290 291 293 295 295 295 294 292 289 284 278 271 263 257 254 252 251 250 250 251 254 258 262 266 270 273
302 301 301 303 304 306 307 308 309 309 308 307 306 306 306 306 308 313 316 317 318 319 319 318 318 317 317 317 319 323 326 327 326 324 321 319 317 315 313 311 309 308 306 302 297 293 289 284 280 277 275 275 275 276 278 279 281 282 283 284 285 287 289 289 290 292 293 293 292 289 284 275 265 257 253 250 248 247 247 249 253 257 261 265 269 273
300 300 301 303 305 306 308 308 309 308 306 305 306 308 312 317 321 324 326 326 327 327 328 327 326 326 325 326 327 330 332 332 331 327 323 319 316 314 313 314 316 316 314 309 303 298 294 289 284 280 278 277 276 275 276 279 280 281 281 281 282 285 287 290 293 295 296 295 294 292 287 277 266 258 252 248 245 244 245 248 251 256 260 264 268 272
303 304 305 306 306 307 308 308 308 307 305 305 309 317 326 332 333 332 332 332 332 332 331 329 329 328 328 327 327 328 328 329 329 327 323 318 314 312 312 316 320 324 324 319 312 306 300 293 286 281 280 279 277 276 277 279 281 282 283 284 284 285 287 291 296 298 299 298 297 294 287 275 262 253 247 243 241 241 244 247 251 256 260 264 268 271
309 309 309 308 309 309 310 309 307 304 303 306 316 331 340 343 343 341 339 337 334 331 328 327 327 325 323 322 323 323 323 324 325 326 324 319 315 314 317 323 328 331 331 327 321 312 303 294 287 282 280 279 278 277 277 279 281 283 285 286 287 289 292 295 297 299 301 301 300 294 282 264 250 242 239 238 239 241 244 247 251 255 260 265 268 272
313 313 312 311 311 310 308 305 302 301 302 312 327 340 346 347 346 344 341 337 333 330 328 327 326 324 321 321 323 324 325 326 328 329 331 329 328 326 328 332 335 337 336 332 326 317 306 296 288 284 282 281 280 281 282 282 284 285 287 289 291 293 294 296 298 302 305 304 299 289 271 251 239 234 235 238 241 244 247 249 252 255 260 264 268 272
318 316 314 311 308 305 302 300 298 300 308 321 334 341 343 342 340 337 334 332 329 329 329 330 330 329 327 328 329 331 332 332 333 335 338 338 338 338 338 340 341 340 339 336 331 322 308 296 289 285 283 281 282 284 287 289 289 290 291 292 293 293 293 296 302 308 311 306 296 281 262 245 236 235 238 242 245 248 252 255 258 260 263 266 270 274
321 318 315 309 304 300 297 296 298 306 318 326 330 332 334 331 328 324 321 322 325 327 329 331 332 332 331 330 332 334 334 334 334 336 339 339 340 341 341 342 343 344 343 342 339 331 318 302 290 286 283 282 282 285 288 292 293 293 294 292 290 287 287 293 303 312 313 304 290 273 257 246 241 240 242 246 250 253 257 260 263 266 268 270 272 275
322 320 315 309 301 296 293 294 302 313 319 321 322 323 324 318 313 310 311 316 321 324 327 329 330 330 329 329 330 332 333 332 332 334 336 336 337 339 340 342 343 345 348 351 352 350 342 327 309 296 290 289 289 290 292 294 296 296 293 287 281 277 278 288 301 307 303 290 273 259 250 245 243 243 245 250 254 258 262 265 267 269 271 272 273 275
322 321 316 309 300 292 289 292 302 312 314 314 317 319 315 306 301 301 307 314 319 322 324 325 325 325 326 326 327 328 328 328 328 330 331 334 336 338 339 340 342 344 348 354 358 1 3 1 355 344 329 319 313 308 305 302 302 301 296 287 278 272 274 286 292 288 276 263 253 249 246 245 246 248 251 255 260 264 267 269 270 270 271 270 271 273
321 321 317 310 301 292 286 288 296 303 305 308 312 311 304 296 295 299 307 314 319 322 324 323 322 321 322 322 322 322 323 324 326 327 328 332 336 338 338 338 339 342 347 352 356 360 1 2 3 4 5 358 347 333 319 308 302 301 301 298 289 282 282 283 277 266 258 254 252 252 251 252 254 256 259 262 265 268 270 271 270 268 265 265 267 271
Height
1460 1458 1458 1457 1456 1454 1453 1452 1452 1450 1449 1448 1448 1447 1446 1445 1444 1443 1443 1442 1441 1439 1438 1438 1437 1436 1435 1434 1434 1433 1432 1431 1430 1429 1429 1428 1427 1427 1426 1425 1425 1424 1424 1423 1423 1423 1423 1422 1422 1422 1422 1422 1422 1422 1422 1421 1421 1422 1422 1421 1421 1421 1421 1421 1421 1421 1421 1421 1421 1421 1421 1421 1421 1422 1422 1422 1422 1422 1422 1421 1420 1420 1420 1420 1420 1420
1458 1457 1456 1455 1454 1453 1451 1450 1450 1449 1448 1447 1446 1445 1444 1443 1442 1442 1441 1440 1439 1438 1437 1436 1435 1434 1433 1432 1432 1431 1430 1429 1429 1428 1427 1426 1425 1425 1424 1423 1423 1423 1422 1422 1421 1421 1421 1421 1421 1420 1420 1420 1420 1420 1419 1419 1419 1419 1419 1419 1419 1419 1419 1419 1419 1419 1419 1419 1419 1419 1419 1419 1419 1419 1419 1419 1419 1419 1419 1419 1418 1418 1418 1418 1418 1418
1457 1456 1454 1454 1453 1452 1450 1449 1448 1448 1447 1445 1444 1443 1443 1442 1440 1439 1439 1438 1437 1436 1435 1434 1433 1432 1431 1430 1430 1429 1428 1428 1427 1426 1425 1424 1424 1423 1423 1422 1421 1421 1420 1420 1419 1419 1419 1419 1418 1418 1418 1418 1418 1418 1417 1417 1417 1417 1416 1416 1416 1416 1416 1416 1416 1416 1416 1416 1416 1416 1416 1416 1417 1417 1417 1417 1417 1417 1417 1417 1417 1416 1416 1416 1416 1416
1456 1455 1453 1452 1452 1450 1449 1448 1447 1446 1445 1444 1443 1442 1441 1440 1438 1438 1437 1436 1435 1434 1433 1432 1431 1430 1429 1428 1428 1427 1426 1426 1425 1424 1423 1423 1422 1421 1421 1420 1419 1419 1418 1418 1418 1417 1417 1417 1416 1416 1416 1416 1415 1415 1415 1415 1414 1414 1414 1414 1414 1414 1414 1414 1414 1414 1414 1414 1414 1414 1414 1414 1414 1414 1414 1414 1414 1414 1414 1414 1414 1414 1414 1414 1414 1414
1455 1454 1452 1451 1450 1448 1448 1447 1446 1445 1443 1442 1441 1440 1439 1438 1437 1436 1435 1434 1433 1432 1431 1430 1429 1428 1427 1426 1425 1425 1424 1423 1423 1422 1422 1421 1420 1419 1419 1418 1418 1417 1417 1416 1416 1415 1415 1414 1414 1413 1413 1413 1413 1413 1413 1413 1412 1412 1412 1412 1412 1412 1412 1412 1412 1412 1412 1412 1412 1412 1412 1412 1412 1412 1412 1412 1412 1412 1412 1412 1412 1412 1412 1412 1412 1412
1453 1453 1451 1450 1448 1447 1446 1445 1445 1443 1442 1441 1439 1438 1438 1436 1435 1434 1433 1432 1431 1430 1429 1428 1427 1426 1425 1424 1423 1423 1422 1421 1421 1420 1419 1419 1418 1418 1417 1416 1416 1415 1415 1414 1414 1413 1413 1412 1412 1411 1411 1411 1411 1411 1411 1411 1411 1410 1410 1410 1410 1410 1410 1410 1410 1410 1410 1410 1410 1409 1409 1409 1409 1409 1409 1409 1409 1409 1409 1409 1409 1409 1409 1409 1409 1409
1451 1451 1450 1448 1447 1446 1444 1443 1443 1442 1441 1439 1438 1437 1436 1435 1434 1433 1431 1430 1429 1428 1427 1426 1425 1424 1423 1422 1421 1421 1420 1419 1418 1418 1417 1417 1416 1416 1415 1414 1414 1413 1413 1413 1412 1411 1411 1410 1410 1410 1409 1409 1409 1409 1409 1409 1409 1409 1408 1408 1408 1408 1408 1408 1408 1408 1408 1408 1408 1408 1408 1408 1407 1407 1407 1407 1407 1407 1407 1407 1407 1407 1407 1407 1407 1407
1449 1448 1448 1447 1445 1444 1443 1442 1442 1441 1440 1438 1437 1436 1434 1433 1432 1431 1430 1429 1428 1427 1425 1424 1423 1422 1422 1421 1420 1419 1418 1417 1417 1416 1415 1415 1414 1414 1413 1413 1412 1412 1411 1411 1410 1410 1409 1408 1408 1408 1408 1408 1408 1408 1407 1407 1407 1407 1407 1407 1406 1406 1406 1406 1406 1406 1406 1405 1405 1405 1405 1405 1405 1405 1405 1405 1405 1405 1405 1405 1405 1405 1405 1405 1405 1405
1448 1446 1445 1445 1444 1443 1441 1440 1440 1440 1439 1438 1436 1435 1433 1432 1430 1429 1428 1427 1426 1425 1424 1423 1421 1420 1419 1419 1418 1418 1416 1416 1415 1414 1413 1413 1413 1412 1412 1411 1410 1410 1410 1409 1409 1408 1408 1407 1407 1407 1406 1406 1406 1405 1405 1405 1405 1405 1405 1404 1404 1404 1404 1403 1403 1403 1403 1403 1403 1403 1403 1403 1403 1403 1403 1403 1403 1403 1403 1403 1403 1403 1403 1403 1403 1403
1447 1445 1443 1443 1442 1442 1440 1438 1437 1437 1437 1436 1435 1433 1432 1430 1428 1427 1426 1425 1424 1423 1423 1421 1420 1418 1417 1417 1417 1416 1415 1414 1413 1413 1412 1411 1411 1410 1410 1409 1409 1409 1408 1408 1408 1407 1407 1406 1406 1405 1405 1404 1404 1404 1403 1403 1403 1403 1403 1402 1402 1402 1402 1401 1401 1401 1401 1401 1401 1400 1400 1400 1400 1400 1400 1400 1400 1400 1400 1400 1401 1401 1401 1401 1401 1401
1444 1443 1442 1440 1439 1439 1438 1437 1435 1435 1435 1434 1433 1431 1431 1429 1428 1426 1424 1423 1422 1421 1421 1420 1419 1418 1416 1415 1414 1414 1413 1412 1411 1411 1410 1409 1409 1408 1408 1408 1407 1407 1407 1407 1406 1406 1405 1405 1405 1404 1404 1403 1403 1403 1403 1402 1402 1402 1401 1401 1401 1400 1400 1400 1399 1399 1399 1399 1398 1398 1398 1398 1398 1398 1398 1398 1398 1398 1398 1398 1398 1398 1398 1398 1398 1398
1442 1441 1439 1438 1438 1437 1436 1435 1434 1433 1433 1432 1431 1429 1428 1428 1427 1426 1424 1422 1420 1419 1419 1418 1417 1416 1415 1414 1413 1412 1412 1411 1410 1409 1408 1407 1407 1406 1406 1405 1405 1405 1405 1404 1404 1404 1404 1404 1403 1403 1403 1402 1402 1402 1402 1401 1401 1401 1400 1400 1399 1399 1398 1398 1398 1398 1397 1397 1397 1397 1396 1396 1396 1396 1396 1396 1396 1396 1396 1396 1396 1396 1396 1396 1396 1396
1440 1439 1438 1437 1436 1435 1435 1434 1433 1432 1432 1431 1430 1428 1427 1426 1426 1425 1423 1421 1419 1418 1417 1416 1415 1414 1414 1413 1412 1411 1410 1409 1408 1407 1406 1405 1405 1404 1403 1403 1403 1403 1402 1402 1402 1402 1402 1402 1402 1401 1401 1401 1401 1400 1400 1400 1399 1399 1399 1398 1398 1398 1397 1397 1396 1396 1395 1395 1395 1395 1394 1394 1394 1394 1394 1394 1394 1394 1394 1394 1394 1393 1393 1393 1393 1394
1439 1438 1437 1435 1434 1434 1433 1433 1432 1431 1430 1429 1428 1427 1425 1425 1424 1423 1422 1420 1418 1417 1416 1415 1413 1412 1412 1411 1411 1410 1409 1408 1407 1406 1405 1404 1403 1403 1402 1401 1401 1400 1400 1400 1400 1399 1400 1399 1399 1399 1399 1399 1399 1398 1398 1398 1398 1397 1397 1397 1396 1396 1395 1395 1394 1394 1394 1393 1393 1393 1393 1392 1392 1392 1392 1392 1392 1392 1392 1392 1392 1392 1392 1391 1391 1391
1438 1438 1436 1435 1434 1433 1433 1432 1430 1429 1428 1427 1427 1425 1424 1423 1423 1422 1420 1418 1417 1416 1415 1413 1412 1411 1410 1410 1409 1409 1408 1407 1405 1404 1403 1402 1402 1402 1401 1400 1399 1398 1398 1398 1397 1397 1397 1397 1397 1397 1397 1397 1397 1396 1396 1396 1395 1395 1395 1394 1394 1394 1393 1393 1393 1392 1392 1392 1391 1391 1390 1390 1390 1390 1390 1390 1390 1389 1389 1389 1389 1389 1389 1389 1389 1389
1438 1437 1435 1433 1432 1431 1431 1430 1429 1427 1426 1426 1425 1424 1423 1421 1420 1419 1418 1417 1415 1414 1413 1412 1411 1409 1408 1408 1408 1408 1407 1406 1404 1403 1402 1401 1400 1400 1400 1399 1398 1397 1396 1396 1395 1395 1395 1395 1395 1394 1394 1394 1394 1394 1394 1393 1393 1393 1393 1392 1392 1392 1392 1391 1391 1390 1390 1389 1389 1389 1388 1388 1388 1388 1388 1388 1388 1388 1387 1387 1387 1387 1387 1387 1387 1387
1436 1435 1433 1432 1430 1429 1429 1428 1427 1426 1425 1424 1423 1422 1421 1419 1418 1417 1416 1415 1414 1413 1412 1411 1410 1408 1407 1407 1407 1407 1406 1405 1403 1402 1401 1399 1398 1398 1398 1398 1396 1395 1394 1394 1393 1393 1393 1393 1393 1392 1392 1392 1392 1392 1391 1391 1391 1390 1390 1390 1390 1390 1389 1389 1389 1389 1388 1388 1387 1387 1386 1386 1386 1386 1386 1385 1385 1385 1385 1385 1385 1385 1385 1385 1385 1385
1434 1433 1432 1431 1429 1428 1427 1427 1426 1425 1423 1422 1421 1420 1419 1417 1416 1415 1414 1413 1412 1411 1410 1409 1408 1407 1406 1405 1405 1405 1404 1403 1402 1400 1399 1398 1397 1396 1397 1396 1395 1393 1393 1392 1392 1392 1391 1391 1391 1390 1390 1390 1390 1389 1389 1389 1388 1388 1388 1388 1388 1388 1388 1388 1387 1387 1386 1386 1385 1385 1384 1384 1384 1384 1384 1383 1383 1383 1383 1383 1383 1383 1383 1383 1383 1383
1431 1431 1430 1428 1427 1425 1425 1424 1424 1423 1421 1420 1419 1418 1416 1415 1414 1413 1412 1411 1410 1409 1408 1407 1406 1405 1404 1404 1403 1403 1403 1402 1400 1399 1398 1396 1395 1395 1395 1394 1393 1392 1391 1390 1390 1389 1389 1389 1388 1388 1388 1388 1388 1387 1387 1387 1386 1386 1386 1385 1385 1385 1385 1385 1385 1385 1384 1384 1383 1383 1382 1382 1382 1382 1382 1382 1382 1382 1382 1382 1382 1382 1382 1382 1381 1381
1429 1428 1428 1427 1425 1423 1423 1422 1422 1421 1420 1419 1418 1417 1415 1413 1412 1411 1410 1409 1408 1407 1406 1405 1404 1403 1403 1402 1401 1401 1401 1400 1399 1397 1396 1395 1393 1393 1393 1393 1391 1390 1389 1388 1388 1388 1387 1387 1387 1386 1386 1386 1386 1385 1385 1384 1384 1384 1383 1383 1383 1383 1383 1383 1383 1383 1383 1382 1381 1381 1380 1380 1380 1380 1380 1380 1380 1380 1380 1380 1380 1380 1380 1379 1379 1379
1427 1426 1426 1426 1424 1422 1420 1419 1419 1419 1418 1417 1416 1415 1413 1411 1410 1408 1408 1407 1406 1405 1404 1403 1403 1402 1401 1400 1400 1399 1399 1399 1398 1396 1394 1393 1392 1391 1391 1391 1390 1389 1387 1386 1386 1386 1385 1385 1384 1384 1384 1384 1383 1383 1383 1383 1382 1382 1382 1382 1381 1382 1382 1382 1382 1381 1381 1380 1379 1379 1378 1378 1378 1378 1378 1378 1378 1378 1378 1378 1378 1378 1378 1378 1378 1377
1425 1423 1423 1423 1422 1421 1418 1417 1417 1417 1416 1415 1414 1413 1411 1410 1408 1406 1405 1405 1404 1403 1403 1402 1401 1400 1400 1399 1398 1398 1398 1398 1396 1395 1393 1392 1390 1389 1390 1390 1389 1387 1386 1385 1384 1384 1384 1383 1382 1382 1382 1382 1382 1381 1381 1381 1381 1380 1380 1380 1380 1380 1380 1380 1380 1379 1379 1378 1378 1377 1377 1376 1376 1376 1376 1376 1376 1376 1376 1376 1376 1376 1376 1376 1376 1375
1423 1421 1420 1420 1419 1418 1417 1416 1415 1414 1414 1413 1412 1411 1409 1408 1407 1406 1405 1404 1403 1402 1401 1400 1399 1398 1398 1397 1397 1396 1396 1396 1395 1394 1393 1391 1389 1388 1388 1388 1387 1386 1384 1383 1383 1383 1382 1381 1380 1380 1379 1379 1379 1379 1379 1379 1379 1379 1378 1378 1378 1378 1378 1378 1378 1378 1378 1377 1376 1375 1375 1374 1374 1374 1374 1374 1374 1374 1374 1374 1374 1374 1374 1374 1374 1373
1421 1419 1418 1418 1417 1416 1415 1414 1413 1413 1412 1411 1410 1409 1408 1407 1406 1404 1403 1402 1401 1400 1399 1398 1397 1396 1395 1395 1394 1394 1393 1393 1393 1392 1391 1389 1387 1386 1387 1387 1385 1384 1382 1381 1381 1381 1380 1378 1378 1377 1377 1377 1377 1377 1377 1377 1377 1377 1377 1377 1376 1376 1376 1376 1376 1376 1376 1375 1374 1374 1373 1373 1373 1373 1372 1372 1372 1372 1372 1372 1372 1372 1372 1372 1372 1372
1419 1418 1417 1416 1416 1415 1414 1413 1412 1411 1410 1410 1409 1408 1406 1404 1403 1402 1401 1400 1399 1398 1397 1395 1394 1393 1393 1393 1392 1391 1391 1391 1391 1390 1389 1387 1385 1384 1384 1384 1384 1382 1380 1379 1379 1378 1377 1376 1375 1375 1374 1374 1374 1374 1375 1375 1375 1375 1375 1375 1375 1375 1375 1375 1375 1374 1374 1373 1373 1372 1371 1371 1371 1371 1371 1371 1370 1370 1370 1370 1370 1370 1370 1370 1370 1370
1417 1416 1416 1415 1414 1413 1413 1411 1410 1409 1409 1408 1407 1405 1403 1402 1401 1400 1399 1398 1398 1396 1395 1394 1393 1392 1391 1390 1389 1388 1388 1388 1388 1388 1387 1386 1383 1382 1381 1382 1382 1380 1378 1377 1377 1376 1375 1374 1373 1372 1372 1372 1372 1372 1372 1372 1373 1373 1373 1373 1373 1373 1373 1373 1373 1373 1372 1372 1371 1370 1370 1369 1369 1369 1369 1369 1369 1369 1369 1368 1368 1368 1368 1368 1368 1368
1415 1414 1414 1413 1413 1412 1411 1409 1408 1408 1407 1406 1404 1403 1401 1400 1399 1398 1397 1397 1396 1395 1394 1393 1391 1390 1389 1388 1387 1386 1386 1386 1386 1386 1385 1384 1382 1380 1379 1379 1379 1378 1377 1376 1375 1374 1373 1372 1371 1370 1370 1370 1369 1369 1370 1370 1370 1370 1370 1370 1371 1371 1371 1371 1371 1371 1370 1370 1369 1368 1368 1368 1368 1368 1367 1367 1367 1367 1367 1367 1367 1367 1367 1367 1366 1365
1413 1412 1411 1411 1410 1409 1408 1407 1406 1405 1404 1403 1402 1401 1399 1398 1397 1396 1395 1395 1394 1393 1392 1391 1389 1388 1387 1386 1385 1384 1383 1383 1383 1383 1383 1382 1380 1378 1377 1378 1378 1377 1375 1373 1372 1371 1371 1370 1369 1368 1368 1368 1368 1368 1368 1368 1368 1368 1368 1368 1368 1369 1369 1369 1369 1369 1368 1368 1367 1367 1367 1366 1366 1366 1366 1366 1365 1365 1365 1365 1365 1365 1365 1365 1364 1363
1410 1409 1408 1408 1407 1406 1406 1405 1404 1403 1402 1401 1400 1399 1398 1397 1396 1395 1393 1393 1392 1391 1390 1389 1388 1387 1385 1383 1383 1382 1381 1381 1381 1380 1380 1379 1378 1376 1376 1376 1375 1374 1373 1372 1370 1368 1368 1368 1368 1367 1366 1366 1366 1366 1365 1365 1365 1366 1366 1366 1366 1367 1367 1367 1367 1367 1367 1366 1366 1365 1365 1365 1364 1364 1364 1364 1364 1364 1364 1363 1364 1364 1363 1363 1362 1361
1408 1407 1406 1405 1405 1404 1403 1402 1401 1400 1400 1399 1398 1397 1397 1396 1395 1393 1392 1391 1390 1389 1388 1386 1385 1385 1383 1382 1381 1380 1379 1379 1379 1379 1378 1378 1376 1374 1374 1374 1373 1372 1372 1371 1369 1367 1365 1365 1365 1365 1365 1364 1364 1364 1364 1364 1364 1364 1364 1364 1364 1364 1364 1365 1365 1365 1365 1364 1364 1364 1363 1363 1363 1363 1363 1363 1362 1362 1362 1362 1362 1362 1361 1361 1360 1359
1406 1405 1404 1403 1403 1402 1400 1399 1398 1397 1397 1397 1396 1396 1395 1394 1393 1392 1390 1389 1388 1387 1385 1384 1383 1383 1382 1381 1380 1378 1377 1377 1378 1378 1377 1376 1374 1373 1373 1372 1371 1370 1371 1370 1369 1366 1364 1363 1363 1363 1363 1363 1363 1362 1362 1362 1362 1362 1362 1362 1362 1362 1362 1363 1363 1363 1363 1362 1362 1362 1362 1362 1361 1361 1361 1361 1361 1361 1360 1360 1360 1360 1360 1359 1358 1358
1403 1403 1402 1401 1400 1399 1398 1397 1396 1395 1395 1395 1394 1393 1393 1392 1390 1389 1388 1387 1386 1385 1383 1382 1381 1380 1380 1379 1378 1377 1376 1375 1375 1376 1375 1374 1373 1371 1371 1370 1369 1368 1368 1368 1368 1366 1364 1362 1361 1361 1361 1361 1360 1360 1360 1360 1360 1360 1360 1360 1360 1360 1360 1360 1360 1360 1360 1360 1360 1360 1360 1360 1360 1360 1359 1359 1359 1359 1359 1359 1358 1358 1358 1357 1356 1356
1401 1400 1399 1399 1398 1397 1396 1395 1394 1393 1393 1393 1392 1391 1390 1389 1388 1387 1386 1385 1383 1383 1381 1380 1379 1378 1377 1377 1376 1375 1374 1373 1373 1373 1373 1373 1371 1369 1369 1368 1368 1367 1366 1366 1366 1365 1363 1361 1360 1359 1359 1358 1358 1358 1358 1358 1358 1358 1358 1358 1358 1357 1358 1358 1358 1358 1358 1358 1358 1358 1358 1358 1358 1358 1358 1358 1358 1357 1357 1357 1357 1357 1356 1355 1355 1354
1398 1398 1397 1397 1396 1395 1394 1393 1393 1392 1391 1390 1389 1388 1387 1386 1385 1384 1383 1382 1381 1380 1379 1378 1377 1376 1376 1375 1374 1373 1372 1372 1372 1372 1372 1371 1370 1369 1368 1368 1367 1366 1365 1364 1364 1363 1362 1360 1359 1358 1357 1357 1356 1356 1356 1356 1356 1356 1356 1356 1355 1355 1355 1355 1356 1356 1356 1356 1356 1356 1356 1356 1356 1356 1356 1356 1356 1356 1355 1355 1355 1355 1354 1354 1353 1353
1396 1396 1395 1394 1393 1393 1392 1391 1390 1390 1389 1388 1387 1386 1384 1383 1382 1381 1380 1379 1378 1378 1377 1376 1375 1375 1374 1373 1372 1371 1370 1370 1370 1370 1370 1369 1368 1368 1366 1366 1365 1365 1364 1363 1362 1361 1360 1359 1358 1357 1356 1355 1354 1354 1354 1354 1353 1353 1353 1353 1353 1353 1353 1353 1353 1353 1353 1353 1353 1353 1354 1354 1354 1354 1354 1354 1354 1354 1353 1353 1353 1353 1353 1352 1352 1352
1394 1393 1393 1392 1391 1390 1389 1389 1388 1387 1386 1385 1384 1383 1382 1380 1379 1378 1378 1377 1376 1375 1375 1374 1373 1373 1372 1372 1371 1369 1368 1368 1368 1368 1368 1367 1367 1366 1365 1364 1363 1363 1363 1362 1361 1360 1359 1358 1357 1356 1355 1354 1353 1352 1352 1352 1352 1352 1351 1351 1351 1351 1351 1351 1351 1352 1352 1351 1352 1352 1352 1352 1353 1353 1353 1353 1352 1352 1352 1352 1352 1351 1351 1351 1350 1350
1392 1391 1390 1389 1389 1388 1387 1386 1386 1385 1384 1382 1381 1380 1379 1378 1377 1376 1376 1375 1374 1373 1373 1372 1372 1371 1370 1370 1369 1368 1367 1366 1366 1366 1366 1365 1365 1364 1363 1362 1361 1361 1361 1360 1359 1358 1358 1357 1355 1354 1354 1353 1352 1351 1350 1350 1350 1350 1349 1349 1349 1349 1349 1349 1349 1349 1349 1349 1349 1350 1350 1350 1350 1351 1351 1351 1350 1350 1350 1350 1350 1350 1349 1349 1349 1348
1390 1389 1388 1388 1387 1386 1385 1384 1383 1382 1381 1380 1379 1378 1377 1376 1375 1374 1374 1373 1372 1372 1371 1370 1370 1369 1369 1368 1367 1367 1366 1365 1365 1364 1364 1364 1363 1363 1362 1360 1359 1359 1359 1358 1358 1357 1356 1355 1354 1353 1352 1351 1351 1350 1349 1349 1349 1348 1348 1347 1347 1347 1347 1347 1347 1348 1348 1348 1348 1348 1348 1348 1348 1348 1349 1349 1349 1349 1349 1348 1348 1348 1348 1348 1347 1347
1388 1387 1387 1386 1385 1384 1383 1382 1381 1380 1379 1378 1377 1376 1375 1374 1373 1373 1372 1372 1371 1370 1370 1369 1368 1368 1367 1367 1366 1366 1365 1364 1364 1363 1363 1362 1362 1361 1360 1359 1358 1357 1356 1356 1355 1355 1354 1354 1353 1352 1351 1350 1349 1348 1348 1348 1348 1347 1346 1346 1345 1345 1345 1345 1345 1346 1346 1346 1346 1346 1346 1346 1346 1347 1347 1347 1347 1347 1347 1347 1347 1347 1347 1346 1346 1346
1387 1386 1385 1384 1383 1383 1382 1381 1379 1378 1377 1376 1375 1374 1373 1373 1372 1372 1371 1370 1370 1369 1369 1368 1367 1367 1366 1365 1365 1365 1364 1363 1363 1362 1362 1361 1360 1359 1359 1358 1357 1355 1355 1354 1353 1353 1353 1352 1351 1350 1350 1349 1348 1347 1347 1347 1346 1346 1346 1345 1345 1344 1343 1343 1343 1343 1344 1344 1344 1344 1344 1344 1344 1344 1345 1345 1346 1346 1346 1346 1346 1346 1345 1345 1345 1344
1385 1384 1383 1383 1382 1381 1380 1378 1378 1376 1375 1374 1373 1373 1372 1372 1371 1370 1370 1369 1369 1368 1368 1367 1366 1365 1365 1364 1364 1363 1363 1362 1362 1361 1360 1359 1359 1358 1358 1357 1355 1354 1353 1353 1352 1351 1351 1350 1349 1349 1348 1348 1347 1346 1345 1345 1345 1345 1345 1345 1344 1343 1343 1343 1342 1342 1342 1342 1342 1342 1342 1342 1342 1343 1343 1343 1344 1344 1344 1344 1344 1344 1344 1344 1343 1343
1383 1383 1382 1381 1379 1378 1378 1377 1376 1375 1374 1373 1373 1372 1371 1371 1370 1369 1369 1368 1368 1367 1367 1366 1365 1364 1363 1363 1362 1362 1361 1361 1360 1360 1359 1358 1358 1357 1356 1355 1354 1353 1353 1352 1351 1350 1349 1349 1348 1347 1347 1346 1345 1345 1344 1343 1343 1343 1344 1343 1343 1342 1342 1341 1341 1340 1340 1340 1340 1340 1340 1340 1340 1341 1341 1342 1342 1343 1343 1343 1343 1343 1343 1343 1342 1342
1382 1381 1380 1379 1378 1377 1376 1375 1374 1373 1373 1372 1372 1371 1371 1370 1369 1368 1368 1367 1367 1366 1365 1365 1364 1363 1362 1361 1360 1360 1359 1359 1359 1358 1358 1357 1357 1356 1355 1354 1353 1352 1352 1351 1349 1348 1348 1347 1347 1346 1345 1345 1344 1343 1343 1342 1342 1342 1342 1342 1341 1341 1340 1339 1339 1339 1338 1338 1338 1338 1338 1338 1339 1339 1340 1340 1341 1342 1342 1342 1342 1342 1342 1342 1341 1341
1380 1379 1378 1377 1376 1375 1375 1374 1373 1373 1372 1372 1371 1370 1370 1369 1368 1368 1367 1367 1366 1365 1364 1364 1363 1362 1361 1360 1359 1358 1358 1357 1357 1357 1357 1356 1355 1354 1353 1353 1352 1351 1350 1349 1348 1347 1346 1346 1345 1344 1344 1343 1343 1342 1341 1341 1340 1340 1340 1340 1340 1340 1339 1338 1338 1337 1337 1337 1337 1337 1337 1337 1338 1338 1339 1339 1340 1340 1341 1341 1341 1341 1341 1341 1340 1340
1379 1378 1377 1376 1375 1374 1373 1373 1372 1372 1371 1371 1370 1369 1369 1368 1368 1367 1367 1366 1365 1365 1364 1363 1362 1361 1360 1359 1358 1357 1356 1356 1355 1355 1355 1354 1354 1353 1352 1351 1350 1349 1348 1348 1347 1346 1345 1344 1343 1343 1343 1342 1342 1341 1340 1339 1339 1338 1338 1338 1338 1338 1338 1338 1337 1336 1336 1336 1335 1336 1336 1336 1337 1337 1338 1338 1339 1339 1340 1340 1340 1340 1340 1339 1339 1339
1378 1376 1375 1374 1374 1373 1373 1372 1371 1371 1370 1370 1369 1368 1368 1368 1367 1366 1366 1365 1365 1364 1363 1362 1361 1360 1359 1358 1358 1356 1355 1354 1354 1353 1353 1353 1352 1352 1351 1350 1349 1348 1347 1346 1345 1344 1343 1343 1342 1342 1341 1341 1340 1339 1339 1338 1338 1338 1337 1338 1338 1337 1337 1337 1336 1336 1335 1335 1335 1335 1335 1336 1336 1337 1337 1338 1338 1339 1339 1339 1339 1339 1339 1338 1338 1338
1376 1375 1374 1373 1373 1372 1371 1371 1371 1370 1369 1369 1368 1368 1367 1367 1366 1366 1366 1365 1364 1363 1362 1361 1361 1360 1359 1358 1357 1356 1355 1354 1353 1352 1352 1351 1351 1350 1349 1348 1348 1347 1346 1345 1344 1343 1342 1341 1341 1340 1340 1339 1339 1338 1338 1338 1337 1337 1337 1337 1337 1336 1336 1336 1335 1335 1334 1334 1334 1335 1335 1335 1336 1336 1337 1337 1338 1338 1338 1338 1338 1338 1338 1338 1337 1337
1375 1374 1373 1373 1372 1371 1371 1370 1370 1369 1368 1368 1368 1367 1367 1367 1366 1366 1365 1364 1363 1363 1362 1361 1360 1359 1358 1357 1357 1356 1355 1354 1353 1352 1351 1350 1349 1349 1348 1347 1347 1346 1345 1344 1343 1342 1341 1340 1340 1339 1339 1338 1338 1337 1337 1337 1337 1336 1336 1336 1336 1336 1335 1335 1335 1334 1334 1334 1334 1334 1335 1335 1335 1336 1336 1336 1337 1337 1337 1338 1337 1337 1337 1337 1336 1336
1374 1373 1372 1371 1371 1370 1370 1369 1369 1368 1368 1368 1367 1367 1366 1366 1366 1365 1364 1363 1363 1362 1361 1360 1359 1358 1358 1357 1356 1355 1355 1354 1353 1352 1351 1350 1349 1348 1347 1346 1345 1345 1344 1343 1342 1341 1340 1339 1339 1338 1338 1338 1337 1337 1336 1336 1336 1336 1336 1335 1335 1335 1335 1334 1334 1334 1334 1334 1334 1334 1334 1335 1335 1335 1335 1336 1336 1336 1336 1337 1337 1336 1336 1336 1335 1335
1373 1372 1371 1370 1370 1369 1369 1368 1368 1368 1367 1367 1366 1366 1366 1365 1364 1364 1363 1363 1362 1361 1360 1359 1358 1358 1357 1356 1356 1355 1354 1353 1353 1352 1351 1350 1348 1348 1346 1346 1345 1344 1343 1342 1341 1340 1339 1338 1338 1338 1337 1337 1337 1336 1336 1335 1335 1335 1335 1335 1334 1334 1334 1334 1334 1334 1334 1334 1334 1334 1334 1334 1334 1334 1335 1335 1335 1335 1336 1336 1336 1336 1335 1335 1335 1335
1372 1371 1370 1369 1369 1368 1368 1367 1367 1367 1366 1366 1366 1365 1365 1364 1363 1363 1362 1362 1361 1360 1359 1358 1358 1357 1356 1356 1355 1354 1353 1353 1352 1351 1350 1349 1348 1347 1346 1345 1344 1343 1343 1342 1341 1340 1339 1338 1338 1337 1337 1337 1336 1336 1336 1335 1335 1335 1335 1334 1334 1334 1334 1333 1333 1333 1333 1333 1333 1333 1333 1333 1334 1334 1334 1334 1335 1335 1335 1335 1335 1335 1334 1334 1334 1334